Wind_Speed
12 13 13 13 14 13 14 14 13 11 10 11 12 14 14 14 14 14 14 14 12 10 9 11 12 13 15 16 16 16 16 16 18 19 19 21 23 24 24 25 26 26 26 26
13 13 13 14 14 13 12 11 11 11 12 13 15 16 16 17 17 16 14 13 11 10 10 11 12 13 15 17 18 17 17 18 18 19 21 22 24 25 26 26 27 27 27 27
14 13 13 13 12 11 10 10 10 10 11 15 16 16 18 18 17 16 15 14 11 11 11 13 13 13 15 17 18 18 18 19 19 20 21 22 23 24 25 26 27 28 28 28
12 12 11 12 11 11 10 10 10 11 11 14 16 17 17 18 19 16 14 13 13 12 12 12 12 13 15 16 17 18 19 19 20 20 22 22 23 24 26 26 27 28 28 29
11 11 11 11 11 11 11 11 11 12 12 13 16 18 19 19 18 16 15 14 13 11 12 13 13 14 15 16 17 18 18 19 20 21 22 23 24 25 26 26 27 27 28 28
11 12 12 11 12 13 13 14 13 14 14 15 17 19 20 20 19 17 16 14 12 11 12 13 14 15 16 16 17 18 18 19 19 20 21 22 23 24 24 25 25 26 26 27
12 12 11 11 12 13 14 15 15 16 16 16 17 19 19 19 18 18 17 14 12 12 12 13 14 16 16 17 17 18 18 19 19 20 20 21 21 22 23 24 24 25 25 25
11 10 10 11 11 12 14 14 15 16 16 16 18 18 17 16 16 16 16 16 14 13 13 14 15 16 16 17 17 18 19 19 20 20 21 21 21 22 22 22 23 23 24 24
11 11 11 11 11 12 13 14 15 15 16 15 16 16 15 15 15 14 14 15 14 13 13 14 15 16 17 18 18 19 20 21 21 21 21 21 21 21 21 21 22 22 22 23
11 11 12 13 13 13 14 15 16 16 16 15 15 15 14 16 16 15 14 14 15 15 15 15 16 17 19 20 20 21 21 21 21 21 21 21 21 21 21 21 21 21 22 22
11 12 13 14 14 14 15 16 17 17 17 17 17 16 16 16 15 13 13 13 14 14 16 17 18 20 21 21 22 22 22 22 22 22 22 22 22 22 22 22 22 22 22 22
12 12 12 14 14 15 16 18 18 18 18 17 17 17 16 17 17 16 16 15 15 16 17 18 20 21 22 23 23 23 23 23 23 23 23 23 23 23 23 22 22 22 22 22
12 13 13 13 15 15 16 17 18 18 19 19 19 20 19 19 18 19 18 16 16 17 18 20 22 23 23 24 24 24 24 24 24 24 24 24 24 24 23 23 22 22 22 22
12 13 13 13 14 16 17 17 19 19 19 19 20 21 20 20 21 21 22 20 20 20 21 23 23 23 24 24 25 25 25 25 25 25 25 25 24 24 24 23 23 23 23 23
10 11 12 13 15 16 17 18 19 19 19 20 21 22 22 22 22 23 22 21 22 23 23 23 24 24 25 25 25 25 25 25 25 25 25 25 25 25 25 24 24 24 23 24
10 10 11 12 14 15 16 18 19 18 19 20 21 21 21 22 23 23 24 23 24 24 24 25 25 25 26 25 25 26 26 25 25 25 25 25 24 24 24 24 24 23 23 23
11 11 11 12 13 14 15 16 16 17 18 19 19 20 22 23 23 24 23 24 25 24 25 25 25 25 26 25 25 25 25 25 24 23 23 23 23 23 23 23 22 22 21 21
10 11 11 12 13 13 14 15 15 15 16 17 18 20 21 22 22 22 24 25 25 24 24 24 23 23 23 23 23 23 23 23 22 22 21 22 22 22 21 21 21 20 19 19
10 10 10 10 12 12 12 13 14 14 14 16 18 19 20 21 22 23 24 24 24 24 23 23 22 22 22 22 22 22 22 21 21 20 20 20 20 19 19 19 18 17 16 16
8 9 10 10 10 10 10 11 13 14 15 16 16 18 19 20 21 22 22 23 22 21 21 21 21 21 21 21 21 21 20 20 20 19 19 18 17 17 16 15 14 14 14 13
7 8 8 9 9 9 10 10 11 12 13 14 15 16 17 19 20 21 21 21 20 20 20 20 19 19 19 19 19 19 18 17 17 16 16 16 15 14 14 12 11 11 11 10
5 6 7 7 8 8 9 9 10 11 12 13 14 15 17 19 19 20 20 20 20 19 19 18 18 17 17 17 16 16 15 14 14 14 13 13 11 10 10 9 8 8 8 8
3 3 4 5 5 7 7 7 8 9 11 13 14 16 17 18 19 19 18 18 18 18 17 17 16 15 14 13 13 13 12 11 10 10 9 8 7 7 6 5 5 5 4 4
4 4 4 4 4 5 6 7 8 10 12 13 14 16 17 18 17 17 16 16 16 16 15 15 14 13 11 11 11 9 8 7 6 5 4 4 4 3 3 2 2 2 2 2
6 5 4 4 4 5 6 6 8 10 11 13 14 16 16 16 15 15 15 15 15 14 13 12 11 10 9 8 7 6 6 5 4 4 3 2 2 1 0 0 1 2 2 2
6 6 6 5 5 6 6 7 8 10 12 14 15 15 15 15 14 14 14 14 13 12 11 10 9 8 8 7 6 6 5 5 4 4 3 2 2 3 3 4 4 4 4 5
Wind_Direction
165 168 169 174 179 181 184 185 190 197 208 224 233 243 254 263 271 275 280 281 285 286 290 290 290 293 295 295 295 296 287 283 278 275 273 270 267 264 263 263 263 262 262 263
160 160 166 172 178 180 186 191 197 204 208 222 234 241 252 262 270 279 281 282 286 289 292 293 292 293 295 295 295 295 288 284 281 279 277 273 270 267 265 264 263 263 264 264
162 163 170 173 177 183 186 191 195 204 212 220 232 243 255 266 271 279 280 283 284 285 289 292 292 293 294 294 294 292 289 287 285 281 278 276 273 270 268 266 265 264 264 265
165 169 171 176 181 193 193 194 199 202 213 224 235 249 261 267 276 281 279 283 286 284 285 288 290 294 297 297 296 293 290 288 285 282 279 277 275 274 270 268 267 266 265 265
171 172 176 185 191 202 204 208 212 218 229 235 243 257 269 272 273 276 279 283 284 285 285 287 291 294 296 298 297 296 293 290 287 284 280 278 277 276 274 271 269 267 267 267
180 180 184 192 198 209 211 216 223 229 239 244 250 258 268 274 275 278 280 280 277 279 282 285 289 291 293 295 296 296 296 294 290 287 283 282 281 278 277 274 271 269 268 267
189 188 191 198 201 212 216 218 226 234 242 247 253 262 268 274 272 273 276 277 275 272 276 283 285 288 291 294 296 295 296 295 292 290 288 285 284 282 280 278 274 270 268 268
200 197 202 206 208 211 218 224 231 239 246 250 255 263 268 272 277 276 270 271 271 271 277 284 284 287 291 294 296 296 296 295 294 291 289 287 287 286 283 280 276 271 269 269
211 210 211 216 218 220 222 228 238 248 254 261 265 270 273 275 288 286 277 271 270 271 276 282 287 291 293 296 297 298 296 294 293 291 289 287 287 286 284 282 280 277 274 272
226 218 218 223 226 229 231 235 242 252 257 264 270 274 283 287 289 289 284 272 269 272 276 283 286 292 295 295 297 298 296 294 292 291 290 288 286 285 283 282 281 278 275 274
236 227 219 224 229 236 242 246 252 258 265 271 281 285 290 300 297 294 291 287 279 279 282 287 287 292 295 295 295 295 294 292 291 291 291 289 287 285 284 283 281 279 276 274
247 238 232 235 238 243 248 250 254 260 265 271 278 288 296 302 300 297 297 288 283 285 286 288 290 291 293 294 293 292 292 292 290 290 289 288 286 284 283 282 280 279 277 274
246 245 242 239 243 247 251 254 256 263 268 271 276 286 295 301 303 305 304 292 293 292 288 289 290 290 291 291 291 291 291 291 289 288 287 287 286 284 283 281 279 277 276 275
246 247 246 244 247 252 255 258 260 264 269 272 277 283 290 296 300 302 302 301 304 296 291 292 291 292 291 291 291 291 290 289 287 286 286 285 285 283 282 282 279 276 274 273
248 248 249 248 251 254 255 258 262 266 270 276 281 284 289 294 297 300 301 300 305 304 298 295 295 294 293 291 291 291 290 289 287 285 285 284 283 283 282 282 280 277 275 272
253 252 249 248 253 257 257 259 262 266 272 278 280 282 287 292 295 299 301 301 302 303 300 298 297 295 295 292 291 291 290 289 288 286 284 283 283 283 283 281 279 277 274 272
256 255 253 250 253 257 258 260 265 267 271 279 281 283 285 289 294 300 302 302 302 301 299 299 298 296 296 295 293 291 290 289 288 286 284 284 284 284 284 282 280 277 274 272
261 261 260 256 256 258 261 265 270 273 277 280 283 286 287 293 299 301 302 302 301 302 301 301 301 300 298 296 295 293 291 290 289 288 286 285 284 284 284 282 280 277 274 272
264 266 264 263 261 264 265 271 277 280 287 289 287 289 294 298 299 301 301 303 303 303 302 302 303 303 301 299 296 295 293 291 289 288 288 287 285 286 284 281 277 274 273 272
267 268 268 269 269 275 281 282 285 288 293 298 297 295 299 300 301 304 305 305 306 305 306 308 306 304 303 301 297 295 293 291 289 288 288 287 286 284 283 280 275 274 272 272
272 274 274 273 277 285 291 290 293 298 302 304 305 305 306 306 307 309 309 308 308 308 309 309 307 305 303 302 301 299 296 293 290 287 287 286 285 283 280 277 273 273 272 271
296 285 281 279 280 291 295 297 302 305 310 312 313 313 314 314 314 314 313 312 311 311 310 310 309 308 308 307 306 303 298 295 293 291 288 285 284 282 277 271 269 272 272 263
344 319 309 293 293 298 302 308 312 315 317 318 317 318 319 319 319 319 317 316 315 314 312 310 310 311 311 311 310 309 305 302 300 299 294 291 289 281 274 271 270 270 271 259
15 4 345 325 316 326 324 325 328 327 325 325 326 326 325 326 325 324 322 321 321 320 318 316 315 314 315 316 317 318 318 316 315 318 314 311 310 290 271 264 264 253 243 233
31 25 12 356 342 336 337 342 344 341 339 339 336 335 336 335 333 331 331 331 330 327 327 328 330 331 330 330 334 339 341 343 341 339 341 337 339 337 41 122 133 149 144 134
37 30 25 16 4 357 1 4 1 356 353 349 348 347 346 347 345 342 341 340 341 342 342 344 349 352 354 354 356 358 4 14 22 28 35 45 71 79 88 89 105 116 119 119
Height
5812 5816 5818 5820 5823 5825 5826 5828 5831 5833 5835 5835 5836 5837 5838 5838 5839 5839 5839 5839 5839 5839 5839 5839 5839 5838 5837 5836 5836 5836 5837 5837 5837 5836 5836 5837 5838 5838 5839 5839 5839 5839 5839 5839
5813 5815 5817 5819 5821 5823 5824 5826 5829 5831 5832 5833 5834 5834 5835 5835 5835 5836 5836 5836 5836 5836 5836 5836 5836 5835 5834 5833 5832 5832 5833 5833 5832 5831 5831 5831 5831 5832 5832 5832 5832 5832 5832 5832
5812 5815 5816 5818 5820 5822 5823 5825 5827 5828 5830 5831 5832 5833 5832 5832 5832 5833 5833 5833 5833 5833 5833 5833 5832 5831 5831 5830 5829 5829 5828 5827 5827 5826 5825 5825 5825 5824 5825 5825 5825 5825 5825 5825
5811 5813 5815 5817 5819 5820 5822 5823 5825 5826 5828 5828 5830 5830 5830 5829 5829 5830 5830 5830 5830 5830 5830 5829 5829 5828 5827 5826 5825 5824 5823 5822 5821 5820 5820 5819 5818 5818 5817 5817 5817 5817 5817 5817
5810 5812 5814 5816 5818 5819 5821 5822 5823 5825 5826 5827 5827 5828 5828 5826 5826 5827 5827 5827 5827 5827 5826 5826 5825 5824 5823 5822 5821 5820 5818 5817 5816 5815 5814 5813 5812 5811 5810 5809 5809 5809 5809 5809
5810 5811 5813 5815 5817 5818 5819 5821 5822 5823 5824 5825 5825 5825 5825 5824 5824 5823 5824 5823 5823 5823 5823 5822 5821 5820 5819 5818 5816 5815 5813 5812 5810 5809 5808 5806 5805 5804 5803 5802 5802 5802 5802 5802
5809 5810 5812 5813 5815 5817 5818 5820 5821 5821 5822 5822 5823 5822 5823 5821 5820 5820 5820 5820 5819 5819 5819 5818 5817 5816 5815 5813 5811 5810 5808 5806 5805 5803 5802 5801 5799 5798 5797 5795 5795 5795 5795 5794
5808 5810 5811 5812 5813 5814 5815 5817 5819 5819 5819 5820 5819 5819 5820 5818 5817 5816 5816 5815 5815 5814 5814 5814 5813 5812 5810 5808 5807 5805 5803 5801 5799 5798 5796 5795 5793 5792 5790 5789 5788 5788 5787 5787
5807 5809 5810 5811 5811 5812 5813 5814 5815 5816 5816 5816 5816 5816 5816 5814 5813 5812 5812 5811 5811 5810 5810 5809 5808 5807 5805 5803 5801 5799 5797 5796 5794 5792 5790 5788 5787 5786 5784 5783 5782 5781 5781 5780
5805 5807 5808 5809 5810 5810 5811 5812 5813 5813 5812 5812 5812 5812 5813 5811 5810 5809 5808 5807 5806 5806 5806 5805 5803 5801 5799 5798 5796 5793 5791 5789 5788 5786 5784 5782 5781 5780 5778 5777 5776 5775 5775 5774
5802 5804 5806 5807 5807 5808 5809 5810 5809 5810 5810 5809 5808 5811 5809 5808 5806 5804 5804 5803 5802 5802 5802 5800 5798 5796 5794 5792 5789 5787 5785 5783 5781 5779 5777 5776 5774 5773 5772 5771 5770 5769 5768 5768
5800 5802 5803 5804 5805 5805 5806 5806 5806 5807 5806 5806 5805 5808 5805 5803 5801 5800 5799 5798 5798 5798 5797 5795 5792 5790 5788 5785 5783 5781 5778 5776 5774 5773 5771 5769 5768 5767 5765 5764 5763 5762 5762 5761
5797 5799 5800 5802 5803 5803 5802 5802 5802 5802 5802 5802 5801 5804 5800 5799 5797 5796 5795 5794 5793 5792 5791 5789 5786 5783 5781 5779 5776 5774 5772 5770 5768 5766 5764 5762 5761 5760 5758 5757 5756 5755 5755 5754
5795 5796 5798 5799 5799 5798 5798 5799 5799 5799 5798 5798 5797 5797 5796 5794 5793 5792 5791 5789 5788 5786 5784 5782 5779 5776 5774 5771 5769 5767 5765 5763 5761 5759 5757 5755 5754 5752 5751 5750 5749 5748 5748 5747
5792 5793 5793 5794 5795 5795 5795 5795 5795 5795 5794 5794 5793 5792 5791 5790 5788 5786 5785 5783 5781 5779 5777 5774 5772 5769 5767 5764 5762 5759 5757 5755 5753 5751 5749 5748 5746 5745 5744 5743 5742 5741 5740 5740
5789 5790 5791 5791 5791 5791 5791 5791 5791 5791 5791 5790 5788 5788 5787 5785 5783 5781 5779 5777 5775 5772 5770 5767 5764 5762 5759 5756 5754 5752 5750 5748 5745 5743 5742 5740 5739 5738 5736 5735 5734 5733 5733 5732
5786 5787 5788 5788 5788 5788 5788 5788 5787 5787 5787 5786 5785 5784 5782 5780 5778 5776 5773 5771 5768 5765 5762 5759 5756 5754 5751 5748 5746 5744 5742 5740 5738 5736 5734 5733 5732 5730 5729 5728 5727 5726 5725 5725
5783 5783 5784 5784 5785 5785 5786 5783 5783 5783 5782 5782 5780 5779 5777 5775 5773 5770 5767 5765 5761 5758 5755 5752 5750 5747 5744 5741 5739 5737 5735 5733 5731 5729 5727 5726 5725 5723 5722 5721 5720 5719 5719 5718
5780 5780 5781 5781 5781 5782 5782 5781 5780 5780 5778 5777 5776 5774 5772 5770 5767 5765 5762 5759 5755 5752 5749 5746 5743 5741 5738 5735 5732 5730 5728 5726 5724 5723 5721 5720 5718 5717 5715 5715 5714 5713 5713 5713
5777 5777 5778 5778 5778 5778 5780 5778 5777 5778 5775 5773 5772 5770 5767 5765 5763 5760 5756 5753 5749 5746 5743 5740 5737 5734 5732 5729 5726 5724 5721 5720 5718 5717 5715 5714 5712 5711 5710 5709 5709 5708 5708 5708
5774 5774 5774 5775 5775 5775 5776 5775 5775 5774 5773 5770 5768 5765 5762 5760 5758 5755 5751 5747 5744 5740 5737 5734 5732 5729 5726 5723 5721 5718 5716 5714 5713 5711 5710 5709 5707 5706 5705 5705 5704 5704 5704 5704
5772 5772 5772 5772 5773 5775 5772 5772 5772 5771 5768 5766 5764 5761 5758 5755 5752 5748 5745 5741 5738 5735 5732 5729 5726 5724 5721 5718 5716 5713 5711 5710 5708 5707 5705 5704 5704 5703 5702 5701 5701 5701 5701 5701
5770 5771 5770 5771 5772 5770 5769 5769 5768 5766 5765 5763 5760 5757 5754 5751 5747 5744 5740 5737 5733 5730 5728 5725 5722 5719 5717 5714 5712 5710 5708 5706 5704 5703 5702 5701 5701 5700 5699 5699 5699 5699 5699 5699
5769 5769 5769 5768 5768 5768 5767 5767 5765 5764 5762 5760 5757 5754 5750 5747 5743 5740 5736 5733 5730 5727 5723 5721 5718 5716 5713 5711 5709 5707 5705 5704 5702 5701 5700 5699 5699 5698 5698 5698 5698 5698 5698 5698
5770 5769 5768 5767 5767 5767 5766 5765 5764 5762 5759 5757 5754 5750 5747 5743 5740 5736 5733 5730 5726 5723 5720 5717 5715 5713 5711 5709 5707 5705 5704 5702 5701 5700 5699 5699 5698 5698 5698 5697 5697 5698 5698 5698
5770 5770 5769 5768 5767 5766 5766 5764 5762 5760 5758 5755 5752 5748 5745 5741 5738 5734 5730 5727 5724 5721 5718 5715 5713 5711 5709 5708 5706 5704 5703 5702 5701 5700 5699 5699 5699 5698 5698 5698 5698 5698 5698 5699